Temp
51 46 40 46 47 47 46 45 41 41 45 43 42 41 42 46 47 45 44 44 44 45 47 46 47 45 44 46 45 46 46 46 46 44 44 45 44 44 44 44 45 44 44 44
47 42 47 50 49 46 44 41 37 41 44 40 41 40 44 45 45 45 45 45 44 45 45 47 44 43 45 43 43 44 45 45 45 44 43 44 43 43 43 43 44 43 43 42
43 45 50 49 45 46 41 40 35 37 40 41 37 35 41 45 46 47 47 47 45 44 42 43 44 43 42 41 41 44 44 44 44 44 44 44 44 43 41 42 42 42 43 41
43 47 47 43 44 43 35 44 43 38 34 28 39 23 36 42 41 42 43 41 41 43 44 43 42 41 40 40 41 43 44 43 44 42 41 39 38 37 40 40 41 41 41 41
38 40 38 41 41 44 38 43 41 39 33 30 29 24 35 42 37 39 41 42 42 42 42 42 40 42 42 41 39 40 41 41 40 40 39 38 36 37 38 38 37 38 39 40
40 46 43 41 44 44 45 40 39 36 32 18 31 29 31 35 39 41 43 43 42 41 41 42 42 43 40 39 38 38 38 38 39 38 37 36 34 35 34 34 34 35 37 37
38 38 41 45 36 40 40 33 21 19 15 18 30 27 35 41 43 46 44 43 40 40 39 39 38 38 37 37 36 39 36 35 36 36 35 35 34 34 33 33 33 33 33 34
31 26 37 43 39 35 34 32 25 17 18 22 29 21 34 42 45 46 47 44 41 39 39 37 37 37 35 36 35 35 35 34 34 34 33 34 33 32 32 32 32 32 32 33
34 28 38 40 42 39 33 26 32 19 13 17 27 32 35 40 39 40 41 41 37 38 37 36 36 36 35 34 34 33 33 33 33 33 32 32 32 31 30 31 31 30 31 33
40 26 34 35 39 37 33 37 24 22 14 13 24 27 33 31 35 36 37 36 36 37 36 36 35 34 34 34 33 33 33 31 31 31 31 32 31 31 30 29 27 27 28 29
40 34 28 34 31 30 28 25 27 30 27 18 16 25 41 38 37 35 38 39 38 36 35 34 34 34 34 33 32 31 30 30 29 29 29 28 28 28 28 26 24 25 25 25
40 34 23 28 34 36 34 32 30 23 21 23 20 23 39 39 41 40 39 40 39 37 35 35 33 32 32 30 29 29 28 28 28 28 27 27 26 25 23 22 21 22 21 23
37 28 18 25 28 30 29 32 33 23 22 18 16 28 36 35 34 39 36 36 34 35 33 33 32 31 30 28 27 26 26 25 26 25 24 22 21 20 18 17 18 19 18 19
42 29 29 29 32 29 26 31 33 24 17 20 29 31 31 31 32 36 36 35 33 33 32 31 29 28 27 27 24 22 23 23 23 22 19 17 17 17 15 13 12 12 15 16
33 24 22 24 29 29 31 30 31 24 31 24 35 31 37 32 32 33 34 33 32 31 31 30 29 27 25 23 19 17 18 19 20 16 13 8 12 13 10 7 7 10 11 14
30 22 24 19 28 27 24 30 30 32 30 29 33 32 40 38 32 31 32 32 31 30 30 30 30 29 27 24 15 15 9 11 16 9 1 5 5 6 4 2 5 6 9 11
24 22 19 18 24 21 13 26 30 33 28 33 27 36 38 30 32 31 30 32 31 30 29 28 26 25 24 18 18 5 3 11 4 3 1 -0 -1 1 0 2 3 8 11 13
24 24 24 17 19 20 31 31 37 34 37 37 35 37 34 30 34 32 34 33 31 30 28 27 24 22 19 14 10 7 5 2 0 -0 -1 -0 -2 -1 1 1 4 6 11 12
25 27 22 20 20 31 34 29 28 27 30 39 38 40 34 30 30 31 32 33 32 31 29 27 22 17 12 7 5 4 -1 -3 -1 -2 -1 -1 -1 -1 -1 3 4 5 12 14
26 24 27 23 17 16 28 28 35 37 25 39 40 40 26 30 27 34 31 31 29 29 25 18 15 9 7 3 5 6 0 -1 -2 -0 1 1 1 1 -1 2 4 7 10 16
19 20 25 28 26 26 35 32 35 24 33 33 37 38 30 31 33 25 30 28 27 22 16 13 12 9 6 4 8 5 4 2 3 6 6 4 5 6 7 9 11 11 12 14
24 22 23 28 26 24 31 29 32 36 31 33 32 36 33 26 24 25 22 19 16 13 14 11 9 7 2 4 11 7 8 5 6 9 9 7 7 12 13 11 14 14 15 15
27 31 27 31 32 31 36 31 33 27 28 31 32 33 33 25 22 20 19 17 16 14 13 12 11 8 6 7 14 14 8 9 8 7 4 6 9 13 14 13 14 13 14 14
26 29 29 30 33 30 32 29 30 29 27 28 30 30 29 26 23 21 19 19 17 16 14 13 12 10 8 10 16 15 11 11 4 2 5 9 9 10 11 15 15 12 11 11
30 32 30 26 31 29 29 34 33 30 28 28 26 24 28 26 25 22 21 19 18 16 14 14 12 11 11 12 11 10 10 6 5 4 8 10 10 8 10 13 11 13 14 16
29 31 31 34 39 39 37 39 34 30 29 28 26 24 27 27 24 23 20 19 17 15 13 13 12 12 11 10 7 6 5 4 4 6 8 7 8 7 9 8 8 18 19 21
MSLP
1017.52 1017.77 1018.11 1018.15 1018.25 1018.49 1018.64 1019.39 1020.57 1021.65 1022.29 1022.69 1023.10 1023.88 1024.58 1024.85 1025.09 1025.50 1025.86 1026.29 1026.66 1026.99 1027.43 1027.65 1027.84 1027.98 1028.17 1028.40 1028.53 1028.59 1028.37 1028.19 1028.04 1027.85 1027.34 1026.86 1026.45 1025.98 1025.71 1025.40 1025.06 1024.49 1023.85 1023.32
1018.18 1018.38 1018.79 1018.82 1019.12 1019.12 1019.01 1019.84 1021.31 1022.43 1022.96 1023.33 1023.39 1023.82 1024.16 1024.50 1024.76 1025.06 1025.56 1025.91 1026.43 1026.93 1027.24 1027.62 1027.83 1027.98 1028.39 1028.75 1028.91 1028.96 1028.67 1028.49 1028.51 1028.40 1027.95 1027.57 1027.00 1026.49 1026.03 1025.71 1025.41 1024.97 1024.38 1023.90
1018.56 1019.45 1019.45 1019.22 1019.49 1019.85 1020.36 1020.88 1021.82 1022.53 1023.33 1023.61 1023.85 1023.90 1023.59 1023.88 1024.51 1024.66 1025.01 1025.53 1026.23 1026.86 1027.29 1027.67 1027.94 1028.23 1028.66 1029.17 1029.24 1029.17 1028.90 1028.89 1028.91 1028.79 1028.35 1027.92 1027.55 1027.08 1026.58 1026.20 1025.69 1025.06 1024.71 1024.38
1019.70 1020.20 1020.10 1020.12 1020.16 1020.78 1021.59 1021.83 1022.22 1023.14 1023.75 1024.07 1024.09 1024.13 1022.94 1023.34 1023.87 1024.40 1025.21 1025.75 1026.47 1026.90 1027.33 1027.73 1028.16 1028.56 1028.87 1029.30 1029.34 1029.36 1029.16 1029.24 1029.22 1029.10 1028.84 1028.57 1028.40 1027.85 1027.38 1026.97 1026.28 1025.40 1024.93 1024.81
1020.54 1020.89 1021.04 1021.20 1021.36 1021.15 1022.23 1022.47 1022.98 1023.52 1024.16 1024.64 1024.84 1025.14 1022.12 1022.38 1023.12 1023.52 1024.54 1025.40 1026.04 1026.62 1027.33 1027.77 1028.29 1028.64 1029.01 1029.30 1029.63 1029.73 1029.58 1029.73 1029.79 1029.72 1029.59 1029.35 1029.16 1028.63 1028.07 1027.58 1026.87 1026.08 1025.49 1025.06
1021.11 1021.45 1021.62 1022.04 1022.31 1022.25 1022.58 1023.16 1023.83 1024.36 1025.06 1025.53 1024.39 1024.47 1021.92 1021.85 1021.08 1022.18 1023.42 1024.44 1025.50 1026.49 1027.51 1027.94 1028.41 1028.73 1029.26 1029.53 1029.92 1029.97 1029.93 1030.13 1030.34 1030.33 1030.16 1030.00 1029.81 1029.21 1028.71 1028.14 1027.51 1026.78 1026.21 1025.60
1021.66 1022.25 1022.62 1022.69 1023.05 1023.40 1023.60 1023.72 1024.95 1025.95 1026.24 1025.73 1024.89 1024.43 1020.84 1020.40 1020.19 1020.67 1022.05 1023.74 1025.17 1026.39 1027.52 1028.06 1028.59 1029.14 1029.57 1029.98 1030.39 1030.14 1030.40 1030.66 1030.71 1030.83 1030.67 1030.57 1030.35 1029.81 1029.40 1028.90 1028.38 1027.76 1027.00 1026.39
1020.93 1022.61 1022.86 1022.93 1022.85 1022.86 1023.70 1024.23 1024.72 1025.73 1026.65 1026.21 1025.75 1023.69 1020.61 1019.90 1019.75 1020.14 1021.47 1023.30 1024.96 1026.35 1027.42 1028.22 1028.76 1029.33 1029.82 1030.34 1030.62 1030.66 1030.83 1031.12 1031.33 1031.34 1031.16 1031.04 1030.82 1030.39 1029.91 1029.58 1029.08 1028.65 1028.12 1027.46
1019.81 1022.10 1023.30 1023.38 1023.35 1023.73 1024.06 1024.61 1025.07 1026.05 1027.36 1026.66 1024.31 1022.28 1020.79 1020.33 1020.60 1021.01 1021.99 1023.30 1024.82 1026.14 1027.31 1028.23 1028.90 1029.46 1029.89 1030.59 1030.84 1030.88 1031.21 1031.57 1031.81 1031.82 1031.70 1031.53 1031.27 1030.86 1030.48 1030.07 1029.80 1029.42 1028.90 1028.08
1018.67 1021.73 1023.46 1024.16 1024.09 1024.26 1024.22 1024.49 1025.36 1026.20 1026.89 1026.05 1023.53 1022.34 1020.45 1020.52 1020.76 1021.58 1022.31 1023.39 1024.75 1026.01 1027.13 1028.07 1028.92 1029.64 1030.03 1030.71 1030.92 1031.10 1031.50 1031.79 1032.26 1032.33 1032.06 1031.88 1031.73 1031.30 1031.04 1030.62 1030.46 1030.15 1029.63 1028.86
1018.69 1020.23 1024.06 1024.42 1024.20 1023.85 1024.77 1024.71 1025.22 1025.56 1025.64 1025.06 1023.66 1021.05 1018.37 1018.54 1019.45 1020.54 1021.67 1022.86 1024.15 1025.54 1026.77 1027.91 1028.76 1029.46 1030.10 1030.77 1031.08 1031.43 1031.91 1032.34 1032.59 1032.62 1032.57 1032.36 1032.18 1031.82 1031.53 1031.36 1031.19 1030.85 1030.32 1029.70
1019.01 1020.55 1023.01 1023.49 1023.73 1023.74 1023.73 1024.01 1024.51 1025.26 1025.41 1024.88 1023.77 1020.21 1018.39 1018.51 1018.73 1020.02 1021.30 1022.37 1023.60 1024.79 1026.12 1027.46 1028.62 1029.41 1030.27 1030.96 1031.47 1032.03 1032.45 1032.76 1032.87 1033.11 1032.92 1033.02 1032.89 1032.61 1032.34 1031.99 1031.72 1031.42 1031.01 1030.46
1019.14 1020.79 1022.97 1023.97 1024.42 1024.17 1023.81 1023.38 1023.62 1024.50 1024.69 1024.74 1023.89 1020.21 1019.08 1019.00 1019.21 1019.93 1021.12 1022.22 1023.50 1024.67 1026.00 1027.32 1028.46 1029.31 1030.32 1031.02 1031.73 1032.33 1032.86 1033.16 1033.22 1033.58 1033.52 1033.88 1033.76 1033.39 1033.24 1032.89 1032.36 1031.90 1031.52 1030.89
1019.26 1020.38 1020.92 1021.44 1021.25 1021.79 1023.02 1022.56 1022.93 1023.93 1024.37 1022.68 1021.21 1019.31 1019.44 1019.69 1019.92 1020.34 1021.03 1022.07 1023.34 1024.71 1026.02 1027.24 1028.46 1029.35 1030.22 1031.10 1032.02 1032.71 1033.42 1033.86 1033.87 1034.15 1034.27 1034.82 1034.78 1034.32 1034.02 1033.56 1033.16 1032.66 1032.00 1031.27
1020.32 1021.16 1021.39 1021.49 1021.41 1021.42 1021.53 1021.70 1022.14 1022.65 1021.29 1021.28 1018.32 1018.70 1016.99 1018.73 1019.38 1019.94 1020.64 1022.10 1023.37 1024.58 1025.87 1027.15 1028.13 1029.18 1030.54 1031.45 1032.50 1033.39 1034.17 1034.40 1034.46 1034.78 1035.14 1035.60 1035.51 1035.05 1034.71 1034.14 1033.58 1033.01 1032.46 1031.75
1021.10 1021.74 1021.98 1022.27 1021.92 1021.80 1021.87 1021.68 1021.44 1020.97 1020.67 1019.74 1017.88 1016.70 1016.52 1017.20 1018.60 1019.99 1020.76 1021.74 1023.04 1024.09 1025.20 1026.50 1027.93 1029.09 1030.39 1031.42 1032.98 1033.97 1034.77 1034.94 1035.08 1035.46 1035.70 1035.91 1035.98 1035.55 1035.03 1034.35 1033.79 1033.28 1032.66 1031.95
1021.53 1021.94 1022.73 1022.69 1022.18 1021.87 1021.40 1020.05 1019.49 1018.14 1018.10 1017.44 1017.37 1014.08 1015.92 1017.14 1017.92 1018.71 1020.01 1020.94 1021.78 1023.14 1024.55 1025.89 1027.42 1029.03 1030.36 1031.78 1033.20 1034.32 1035.21 1035.18 1035.33 1035.70 1036.04 1036.08 1036.20 1035.77 1035.09 1034.37 1033.91 1033.37 1032.75 1032.05
1021.16 1021.90 1021.84 1022.69 1022.30 1020.24 1016.66 1015.97 1015.96 1016.40 1016.24 1015.86 1015.04 1014.25 1015.23 1016.07 1016.88 1017.71 1018.55 1019.56 1021.33 1022.74 1024.34 1025.81 1027.41 1029.19 1030.61 1032.20 1033.37 1034.28 1035.03 1035.43 1035.66 1036.11 1036.33 1036.26 1036.30 1035.85 1035.17 1034.34 1033.98 1033.48 1032.92 1032.31
1020.79 1020.90 1021.71 1021.41 1020.63 1017.10 1015.47 1015.51 1015.49 1015.32 1013.73 1013.55 1013.39 1013.29 1015.10 1016.40 1017.42 1017.92 1018.23 1019.24 1020.23 1021.80 1023.70 1025.46 1027.25 1029.09 1030.69 1032.52 1033.59 1034.41 1035.32 1035.79 1035.83 1036.54 1036.22 1036.13 1036.22 1035.74 1035.08 1034.52 1034.06 1033.58 1033.12 1032.50
1020.53 1020.22 1020.19 1020.35 1019.54 1016.45 1014.10 1013.77 1013.61 1014.00 1012.74 1011.06 1011.69 1012.15 1014.88 1016.23 1017.70 1016.28 1017.63 1019.10 1020.83 1022.37 1024.05 1025.87 1027.81 1029.60 1031.11 1032.90 1033.38 1034.34 1035.07 1035.66 1035.70 1036.30 1036.02 1035.91 1035.94 1035.45 1034.83 1034.48 1034.07 1033.68 1033.16 1032.60
1020.43 1020.17 1018.72 1018.03 1017.70 1014.32 1012.63 1013.50 1013.95 1014.26 1010.86 1010.27 1010.85 1011.58 1013.83 1015.03 1015.16 1016.15 1017.40 1019.46 1021.14 1022.71 1024.41 1026.46 1028.44 1029.79 1031.17 1032.42 1032.99 1033.89 1034.49 1035.10 1035.19 1035.73 1035.66 1035.56 1035.56 1035.21 1034.72 1034.29 1033.95 1033.51 1033.06 1032.54
1016.67 1017.84 1017.33 1017.48 1016.97 1013.75 1011.82 1013.66 1013.07 1011.13 1010.43 1010.72 1010.98 1011.39 1012.84 1014.73 1015.90 1017.22 1018.74 1020.21 1022.11 1023.56 1025.48 1027.19 1028.74 1030.16 1031.29 1032.08 1032.37 1033.34 1034.00 1034.41 1034.73 1035.39 1035.44 1035.29 1035.28 1034.89 1034.52 1034.12 1033.88 1033.47 1033.14 1032.71
1013.87 1012.06 1013.03 1013.22 1011.26 1010.28 1009.95 1009.96 1010.20 1010.93 1011.14 1011.27 1011.52 1011.66 1012.89 1014.96 1016.57 1018.07 1019.68 1020.95 1022.82 1024.03 1025.51 1027.10 1028.24 1029.93 1031.26 1031.89 1031.85 1032.28 1033.26 1033.98 1034.45 1035.22 1035.18 1035.04 1035.15 1034.81 1034.35 1033.99 1033.88 1033.64 1033.41 1033.06
1011.62 1011.05 1011.01 1011.56 1008.92 1009.62 1009.87 1009.75 1010.01 1011.05 1011.34 1011.66 1011.98 1012.31 1013.54 1014.99 1016.77 1018.15 1019.86 1021.26 1022.83 1024.16 1025.22 1026.41 1027.89 1029.27 1030.62 1031.33 1031.50 1031.65 1032.91 1033.67 1034.15 1035.08 1034.89 1034.59 1034.74 1034.73 1034.41 1034.10 1033.97 1033.81 1033.72 1033.32
1008.60 1009.64 1008.97 1008.85 1008.28 1009.37 1009.79 1009.88 1009.99 1011.07 1011.71 1012.07 1012.68 1013.16 1014.11 1015.27 1017.05 1018.08 1019.52 1020.91 1022.52 1023.87 1025.18 1026.18 1027.10 1028.40 1029.64 1030.42 1031.30 1031.88 1032.80 1033.60 1034.08 1034.75 1034.73 1034.55 1034.59 1034.60 1034.42 1034.14 1033.80 1033.81 1033.89 1033.31
1006.46 1006.00 1006.59 1004.85 1005.68 1006.71 1007.33 1007.78 1008.90 1010.21 1010.83 1011.53 1012.61 1013.77 1014.66 1015.37 1016.54 1017.91 1019.43 1020.73 1022.14 1023.60 1024.83 1025.91 1026.70 1028.08 1029.31 1030.25 1031.17 1031.80 1032.56 1033.31 1033.79 1034.65 1034.63 1034.52 1034.57 1034.46 1034.39 1034.30 1034.03 1033.48 1033.23 1033.01
Wind_Speed
2 2 4 9 1 2 3 8 7 6 1 4 6 7 9 8 8 8 8 8 7 6 5 3 4 4 4 6 7 7 7 8 6 7 7 8 6 5 5 5 7 10 11 14
1 0 4 6 2 2 2 9 5 5 0 2 4 8 9 11 9 8 9 8 7 5 5 4 3 4 5 6 7 6 7 7 7 6 5 5 5 5 4 4 6 8 11 12
1 4 3 3 4 4 6 3 5 4 5 5 2 8 11 11 9 6 6 7 7 6 4 4 4 6 7 6 5 5 7 8 7 8 5 6 6 5 5 8 8 9 11 11
5 2 3 4 5 4 3 6 8 9 6 2 6 6 9 14 12 9 8 7 8 8 5 3 4 5 6 5 6 6 7 8 8 8 7 8 8 7 6 7 8 8 10 11
3 4 2 3 4 1 5 1 5 4 2 2 4 0 7 15 16 17 13 10 10 9 6 5 5 4 7 6 5 6 7 8 7 8 8 7 8 6 5 7 11 11 10 11
4 3 5 4 4 2 9 8 5 5 2 1 7 8 6 9 20 14 15 13 10 9 8 6 6 5 6 7 6 6 7 7 7 8 8 8 9 9 8 10 9 9 9 10
4 3 2 7 8 1 3 3 2 3 2 6 4 2 10 7 6 13 17 14 10 9 7 7 6 6 6 7 5 5 7 7 8 8 7 8 8 8 8 9 8 11 10 10
7 4 8 6 1 7 8 3 4 7 4 4 3 8 8 4 7 5 13 14 11 10 7 7 6 7 6 6 6 7 7 7 7 7 8 7 7 6 6 8 8 8 8 9
7 3 3 5 3 3 5 4 1 6 2 3 6 6 4 4 4 4 10 11 10 9 9 8 7 6 7 6 6 6 6 7 6 7 6 7 7 8 8 9 9 8 10 10
4 7 1 1 2 3 1 4 5 2 3 5 4 1 10 8 11 9 10 11 10 9 9 8 7 7 6 5 5 6 6 6 6 6 6 7 8 8 9 8 10 11 11 13
4 7 3 5 8 8 2 2 1 1 4 6 3 7 6 14 17 19 15 13 12 11 10 8 7 7 7 6 5 6 6 6 6 5 6 6 8 10 9 9 10 11 12 13
3 6 5 6 2 4 2 7 7 6 7 2 2 9 2 5 13 15 15 14 11 12 10 9 8 8 7 6 6 6 6 5 5 5 7 8 9 10 10 10 11 11 12 12
9 2 4 2 1 1 6 7 5 4 3 5 5 8 2 2 2 9 12 10 10 12 11 10 8 7 7 7 6 6 5 5 6 6 8 9 9 10 10 10 11 12 12 12
4 3 8 10 5 7 7 10 13 8 4 7 15 11 5 7 8 8 10 11 11 11 12 10 7 7 8 7 6 6 5 5 5 7 8 9 10 10 10 9 9 10 11 11
5 6 4 2 3 3 4 5 14 13 23 11 17 18 26 15 15 13 10 10 13 13 13 12 10 8 7 8 7 5 4 4 5 5 6 5 7 8 7 6 7 8 9 9
2 3 3 4 4 4 3 7 10 22 14 19 23 25 4 8 8 9 12 16 16 15 15 13 11 12 11 9 7 5 3 1 5 4 3 4 5 6 6 5 7 7 7 7
7 7 4 5 0 0 4 19 22 19 9 20 19 28 9 7 14 17 15 18 20 18 17 15 12 11 11 9 9 6 4 3 3 2 3 4 4 6 6 5 6 8 9 9
7 6 3 3 1 11 1 3 18 19 21 23 19 22 6 8 11 9 15 20 17 17 16 14 12 10 11 7 7 6 4 3 4 2 2 3 4 5 6 5 6 6 8 8
2 5 4 5 6 12 14 8 11 13 12 26 28 28 7 5 5 7 10 15 18 18 15 14 13 10 10 9 7 7 5 3 4 1 2 3 4 5 5 6 6 4 7 7
2 2 3 5 5 11 1 2 5 8 13 20 20 24 12 11 7 11 16 14 12 15 15 16 13 10 11 7 8 7 5 4 4 2 3 2 4 4 3 3 4 4 3 7
4 1 14 11 8 12 8 10 5 7 11 2 10 11 16 13 9 3 13 11 13 14 17 15 13 13 10 8 8 7 6 5 4 3 2 1 4 4 2 3 3 4 5 6
14 13 8 7 9 24 9 5 12 8 2 3 3 8 13 8 9 12 12 14 15 17 17 13 13 11 8 8 9 8 6 5 4 3 2 1 3 2 3 3 4 4 6 7
11 11 12 15 13 4 20 8 8 4 5 5 4 4 13 13 8 13 14 15 15 16 15 12 14 13 9 8 9 10 7 7 5 3 2 1 2 3 3 3 4 4 6 6
5 4 5 5 11 12 15 4 5 6 5 2 3 7 13 13 16 13 14 15 15 14 15 12 14 13 12 9 9 7 10 8 7 4 3 3 2 3 1 3 3 2 3 4
9 16 12 9 5 3 6 13 6 7 6 5 2 5 8 16 14 16 16 16 14 14 13 13 13 13 13 12 7 9 9 8 6 4 3 1 2 1 1 1 1 1 3 5
9 13 16 17 12 13 8 22 14 14 13 11 9 8 8 11 17 15 14 13 15 15 14 12 12 12 12 11 10 8 8 8 7 5 3 2 1 0 0 1 2 6 4 8
Wind_Direction
11 171 184 194 200 26 272 135 150 71 108 227 219 152 182 205 204 184 177 180 165 154 158 138 114 89 51 48 27 24 15 13 11 354 353 349 344 343 347 354 359 357 359 1
185 129 75 55 70 227 252 127 97 64 94 327 195 211 191 191 215 196 189 188 157 162 144 104 76 92 63 56 30 18 13 19 11 2 348 340 334 327 344 342 350 0 0 3
116 62 93 138 151 159 21 136 158 129 156 265 183 261 199 196 208 198 206 165 136 165 170 107 62 34 63 46 35 10 13 30 15 2 349 344 340 341 344 352 346 356 3 3
64 131 172 155 120 24 108 339 101 132 153 222 172 278 199 196 207 202 207 187 182 172 177 123 62 46 74 45 29 17 29 34 14 1 0 358 352 349 346 347 340 351 0 1
128 139 219 163 48 2 146 144 112 144 218 40 194 299 270 179 210 208 199 192 186 164 165 127 83 60 84 67 30 36 36 34 15 6 12 6 352 343 343 349 347 354 354 356
84 331 23 85 86 80 146 113 93 71 53 348 214 170 238 181 217 201 194 188 168 155 164 129 113 93 86 61 38 49 31 35 14 10 11 10 355 351 356 356 355 356 352 353
125 115 56 145 87 25 295 148 51 350 11 224 18 239 258 206 177 196 187 173 157 149 168 132 117 104 79 64 38 45 40 35 16 10 7 8 358 354 360 356 353 357 353 354
151 243 164 196 257 174 201 201 177 205 194 212 113 233 255 342 140 165 160 154 147 152 137 142 132 111 100 77 52 43 44 34 21 4 359 5 1 358 1 357 356 355 352 347
162 110 35 13 358 17 175 196 59 97 52 55 218 267 299 161 136 116 139 145 152 158 154 149 137 119 103 97 72 60 43 35 24 3 3 2 357 2 359 359 357 353 347 345
150 107 170 118 298 22 10 159 93 336 196 258 257 243 244 209 200 181 174 166 160 161 153 147 144 133 111 103 92 68 51 46 21 9 4 4 353 356 358 359 357 352 345 346
127 111 117 133 214 177 152 221 224 73 181 199 261 243 208 206 189 190 190 178 173 163 158 156 145 134 124 119 93 77 51 47 24 8 360 359 353 351 358 355 353 346 342 342
183 108 159 194 66 13 251 205 172 146 231 227 153 266 38 360 182 183 186 180 174 158 156 150 149 142 143 121 96 79 55 36 23 3 5 360 352 349 352 350 344 341 337 335
188 175 91 342 2 6 220 195 201 104 60 208 149 261 30 350 73 178 171 173 157 152 143 146 151 149 148 133 109 83 63 35 13 9 14 358 349 348 347 344 340 338 334 333
116 154 175 189 155 130 194 198 194 143 143 209 220 249 226 221 211 191 169 158 155 152 152 156 155 159 146 129 107 85 56 31 14 22 20 355 347 346 338 337 340 334 333 333
132 187 130 236 112 146 199 191 191 196 225 200 240 226 241 207 201 200 169 151 153 160 166 172 168 157 142 131 106 93 59 32 39 34 20 332 326 333 321 330 337 333 329 325
183 184 99 313 165 160 201 252 227 219 232 252 258 265 150 213 150 167 174 167 176 179 177 172 169 159 158 140 139 115 112 34 58 42 343 315 320 322 317 327 338 327 325 324
148 133 123 245 195 156 277 217 222 223 191 227 237 246 150 194 181 189 181 182 184 181 176 171 166 157 141 135 142 145 155 109 73 44 311 319 322 320 315 331 332 345 345 342
150 142 131 170 53 265 254 179 221 230 232 228 251 254 179 203 200 184 195 184 181 174 171 165 152 139 132 122 121 133 129 113 87 22 322 333 323 317 314 345 347 339 350 342
35 133 154 169 199 295 292 192 182 180 239 228 233 248 159 117 79 253 186 190 182 174 166 158 146 137 124 139 144 136 125 116 89 343 320 322 311 312 328 359 345 332 344 344
39 19 174 133 197 240 130 138 127 103 278 225 210 234 142 139 190 229 176 168 155 150 147 139 134 124 130 150 142 136 139 129 127 246 269 289 292 298 355 334 328 305 322 341
136 130 211 211 230 271 178 164 160 131 251 172 193 209 157 192 196 211 145 138 140 138 135 129 137 144 149 150 145 141 148 160 169 218 236 272 290 304 359 342 320 318 343 336
167 167 187 199 216 259 142 47 178 207 149 188 213 185 172 132 118 126 131 133 134 133 135 139 133 141 143 154 147 152 162 162 155 216 164 292 297 336 348 12 355 357 360 0
195 186 169 191 212 176 186 181 190 150 165 205 206 154 140 135 149 143 146 142 146 145 142 143 142 140 152 173 164 161 157 154 148 166 184 231 306 331 343 46 18 8 7 9
247 169 194 107 232 221 209 210 152 167 177 156 175 137 147 146 151 142 145 146 149 149 151 149 144 149 162 177 181 143 149 153 135 176 211 191 151 318 18 31 23 2 5 3
175 155 178 251 256 7 258 235 189 170 137 125 108 129 144 142 156 152 154 152 155 152 152 154 155 157 164 166 147 139 142 138 151 179 201 189 175 180 339 28 183 23 330 331
185 178 187 214 183 209 202 211 184 171 188 166 147 136 146 159 156 154 153 155 153 156 157 158 153 153 157 152 147 140 142 156 153 173 187 171 197 227 350 15 340 350 336 340